"2016-07-15 00:00:00",1810009,1.312,150.5,22.23,0.147,23.24,109.5671,23.78,24.77,30.87,0,111.3,13,24.62,112.5
"2016-07-15 00:00:30",1810010,1.606,134,6.76,0.506,23.1,109.5729,23.8,24.78,30.72,0,111.2,13,24.63,96.0
"2016-07-15 00:01:00",1810011,2.848,141.7,4.979,0.509,23.02,109.5741,23.8,24.79,31.05,0,111.3,13,24.64,103.7
"2016-07-15 00:01:30",1810012,4.271,131.5,2.913,0.237,23.04,109.5757,23.8,24.79,31.5,0,111.2,13,24.64,93.5
"2016-07-15 00:02:00",1810013,3.337,133,2.872,0.474,23.13,109.5775,23.81,24.81,31.63,0,111.3,13,24.64,95.0
"2016-07-15 00:02:30",1810014,3.651,146.8,5.708,0.334,23.16,109.5821,23.82,24.8,31.7,0,111.2,13,24.66,108.8
"2016-07-15 00:03:00",1810015,2.919,129.7,3.816,0.217,23.09,109.591,23.84,24.83,31.66,0,111.2,13,24.68,91.7
"2016-07-15 00:03:30",1810016,3.264,136.7,6.91,0.524,23.14,109.6076,23.89,24.84,31.81,0,111.2,13,24.72,98.7
"2016-07-15 00:04:00",1810017,3.88,134.6,4.123,0.204,23.14,109.6112,23.9,24.84,31.73,0,111.2,13.01,24.73,96.6
"2016-07-15 00:04:30",1810018,4.078,134,6.286,0.494,23.16,109.609,23.89,24.86,31.69,0,111.2,13.01,24.73,96.0
"2016-07-15 00:05:00",1810019,2.425,96.3,5.291,0.317,23.16,109.6092,23.89,24.87,31.85,0,111.2,13.01,24.73,58.3
"2016-07-15 00:05:30",1810020,3.032,105,6.612,0.234,23.08,109.621,23.92,24.89,31.99,0,111.3,13.01,24.76,67.0
"2016-07-15 00:06:00",1810021,3.105,114.6,3.048,0.278,23.01,109.6358,23.96,24.9,31.63,0,111.3,13.01,24.79,76.6
"2016-07-15 00:06:30",1810022,3.774,109.4,3.988,0.417,23.07,109.6433,23.98,24.91,31.63,0,111.3,13.01,24.81,71.4
"2016-07-15 00:07:00",1810023,4.945,106.6,4.315,0.395,23.05,109.6427,23.98,24.92,31.52,0,111.2,13.01,24.81,68.6
"2016-07-15 00:07:30",1810024,5.098,104.4,6.418,0.597,23.16,109.6512,24,24.95,31.39,0,111.3,13.01,24.83,66.4
"2016-07-15 00:08:00",1810025,6.096,98.9,4.394,0.296,23.33,109.6702,24.05,24.98,31.42,0,111.2,13.01,24.88,60.9
"2016-07-15 00:08:30",1810026,5.352,104,5.31,0.259,23.31,109.678,24.07,25,31.39,0,111.3,13.01,24.90,66.0
"2016-07-15 00:09:00",1810027,4.525,127,4.8,0.401,23.27,109.6819,24.08,25,31.64,0,111.2,13.01,24.91,89.0
"2016-07-15 00:09:30",1810028,4.138,131.2,5.149,0.324,23.32,109.6807,24.07,25.03,31.69,0,111.3,13.01,24.91,93.2
"2016-07-15 00:10:00",1810029,3.295,124.5,6.059,0.311,23.39,109.681,24.08,25.03,31.64,0,111.3,13.01,24.91,86.5
"2016-07-15 00:10:30",1810030,3.796,132.9,7.628,0.53,23.39,109.6841,24.08,25.06,31.98,0,111.3,13.01,24.92,94.9
"2016-07-15 00:11:00",1810031,4.677,142.2,2.134,0.22,23.21,109.6859,24.09,25.06,31.08,0,111.3,13.01,24.92,104.2
"2016-07-15 00:11:30",1810032,4.599,137.8,5.413,0.208,23.23,109.6881,24.09,25.06,30.85,0,111.3,13.01,24.93,99.8
"2016-07-15 00:12:00",1810033,4.26,135.8,3.038,0.297,23.21,109.6927,24.11,25.06,30.76,0,111.3,13.01,24.94,97.8
"2016-07-15 00:12:30",1810034,4.425,136.4,5.263,0.369,23.3,109.7016,24.13,25.07,30.82,0,111.3,13.01,24.96,98.4
"2016-07-15 00:13:00",1810035,3.5,129.4,10.63,0.469,23.33,109.7108,24.15,25.09,31,0,111.3,13.01,24.99,91.4
"2016-07-15 00:13:30",1810036,3.257,110,5.174,0.353,23.34,109.6932,24.11,25.08,31.38,0,111.3,13.01,24.94,72.0
"2016-07-15 00:14:00",1810037,3.804,115.7,6.27,0.697,23.2,109.689,24.1,25.06,31.37,0,111.3,13.01,24.93,77.7
"2016-07-15 00:14:30",1810038,3.984,122.3,4.315,0.527,23.08,109.685,24.09,25.05,31.23,0,111.3,13.01,24.92,84.3
"2016-07-15 00:15:00",1810039,2.836,108.3,5.094,0.38,23.1,109.6866,24.09,25.04,31.07,0,111.3,13.01,24.93,70.3
"2016-07-15 00:15:30",1810040,4.696,115.4,7.357,0.822,23.18,109.6853,24.09,25.05,30.97,0,111.3,13,24.92,77.4
"2016-07-15 00:16:00",1810041,3.933,121.6,2.931,0.315,23.14,109.6869,24.09,25.07,30.94,0,111.3,13.01,24.93,83.6
"2016-07-15 00:16:30",1810042,3.679,114.2,5.347,0.263,23.13,109.6873,24.09,25.07,30.89,0,111.3,13,24.93,76.2
"2016-07-15 00:17:00",1810043,4.731,106.6,5.36,0.818,23.21,109.6978,24.12,25.07,30.87,0,111.3,13,24.95,68.6
"2016-07-15 00:17:30",1810044,6.076,112.8,5.857,0.612,23.25,109.7057,24.14,25.09,30.83,0,111.3,13,24.97,74.8
"2016-07-15 00:18:00",1810045,6.402,115.7,1.998,0.247,23.26,109.7109,24.15,25.08,30.52,0,111.3,13,24.99,77.7
"2016-07-15 00:18:30",1810046,6.436,114.6,2.294,0.176,23.34,109.7143,24.16,25.11,30.44,0,111.3,13,25.00,76.6
"2016-07-15 00:19:00",1810047,6.221,112,2.403,0.211,23.37,109.7083,24.15,25.1,30.38,0,111.3,13,24.98,74.0
"2016-07-15 00:19:30",1810048,5.957,114.3,3.863,0.462,23.42,109.7047,24.14,25.11,30.34,0,111.3,13,24.97,76.3
"2016-07-15 00:20:00",1810049,6.036,112.8,1.343,0.096,23.31,109.6971,24.12,25.1,30.03,0,111.3,13,24.95,74.8
"2016-07-15 00:20:30",1810050,6.42,116.7,2.212,0.445,23.38,109.6927,24.1,25.12,29.87,0,111.3,13,24.94,78.7
"2016-07-15 00:21:00",1810051,5.834,110.6,7.188,0.316,23.47,109.6912,24.1,25.12,30.31,0,111.3,13,24.94,72.6
"2016-07-15 00:21:30",1810052,6.67,110.6,3.2,0.536,23.51,109.6921,24.1,25.11,30.47,0,111.3,13,24.94,72.6
"2016-07-15 00:22:00",1810053,6.034,111,2.064,0.72,23.49,109.6936,24.11,25.11,30.23,0,111.3,13.01,24.94,73.0
"2016-07-15 00:22:30",1810054,5.069,115,3.175,0.307,23.45,109.6922,24.1,25.1,30.15,0,111.3,13.01,24.94,77.0
"2016-07-15 00:23:00",1810055,3.303,118.3,3.623,0.422,23.39,109.6835,24.08,25.08,30.12,0,111.3,13.01,24.92,80.3
"2016-07-15 00:23:30",1810056,3.488,115.2,1.855,0.135,23.33,109.676,24.06,25.08,30.12,0,111.3,13.01,24.90,77.2
"2016-07-15 00:24:00",1810057,3.506,117.4,3.871,0.205,23.3,109.6724,24.05,25.08,30.24,0,111.3,13.01,24.89,79.4
"2016-07-15 00:24:30",1810058,4.02,107.9,4.264,0.223,23.28,109.6699,24.05,25.08,30.11,0,111.3,13.01,24.88,69.9
"2016-07-15 00:25:00",1810059,3.97,105.5,4.192,0.329,23.24,109.667,24.04,25.07,30.17,0,111.3,13.01,24.87,67.5
"2016-07-15 00:25:30",1810060,3.932,121.5,7.681,0.272,23.26,109.6662,24.04,25.05,30.02,0,111.3,13.01,24.87,83.5
"2016-07-15 00:26:00",1810061,3.536,122.1,2.644,0.114,23.29,109.6654,24.03,25.05,29.99,0,111.3,13.01,24.87,84.1
"2016-07-15 00:26:30",1810062,3.875,117.6,3.717,0.633,23.32,109.6634,24.03,25.07,29.96,0,111.3,13.01,24.87,79.6
"2016-07-15 00:27:00",1810063,4.487,114.9,2.082,0.315,23.29,109.662,24.03,25.05,29.76,0,111.3,13.01,24.86,76.9
"2016-07-15 00:27:30",1810064,3.79,113.6,3.226,0.309,23.24,109.6629,24.03,25.07,29.75,0,111.3,13.01,24.86,75.6
"2016-07-15 00:28:00",1810065,3.26,113.7,1.865,0.134,23.31,109.6629,24.03,25.07,29.79,0,111.3,13.01,24.86,75.7
"2016-07-15 00:28:30",1810066,3.462,102.8,4.529,0.2,23.29,109.6686,24.04,25.05,29.79,0,111.3,13.01,24.88,64.8
"2016-07-15 00:29:00",1810067,3.376,99.8,3.111,0.215,23.28,109.6703,24.05,25.06,29.76,0,111.3,13.01,24.88,61.8
"2016-07-15 00:29:30",1810068,3.926,98,4.92,0.155,23.31,109.6718,24.05,25.06,29.74,0,111.3,13.01,24.89,60.0
"2016-07-15 00:30:00",1810069,4.33,82.9,3.764,0.2,23.38,109.6795,24.07,25.08,29.73,0,111.3,13.01,24.91,44.9
"2016-07-15 00:30:30",1810070,4.542,89.4,5.93,0.218,23.36,109.6917,24.1,25.08,29.7,0,111.3,13.01,24.94,51.4
"2016-07-15 00:31:00",1810071,4.172,85.5,3.692,0.164,23.33,109.6983,24.12,25.08,29.7,0,111.3,13.01,24.96,47.5
"2016-07-15 00:31:30",1810072,4.291,83.1,2.601,0.389,23.41,109.6992,24.12,25.09,29.67,0,111.3,13.01,24.96,45.1
"2016-07-15 00:32:00",1810073,4.418,90.5,6.344,0.262,23.38,109.6973,24.12,25.09,29.64,0,111.3,13.01,24.95,52.5
"2016-07-15 00:32:30",1810074,3.808,100.3,6.568,0.4,23.35,109.698,24.12,25.09,29.64,0,111.2,13.01,24.95,62.3
"2016-07-15 00:33:00",1810075,4.351,102.2,8.8,0.249,23.38,109.6976,24.12,25.09,29.63,0,111.3,13.01,24.95,64.2
"2016-07-15 00:33:30",1810076,4.348,100.3,3.939,0.26,23.44,109.6992,24.12,25.09,29.59,0,111.3,13,24.96,62.3
"2016-07-15 00:34:00",1810077,4.532,100.9,5.137,0.197,23.5,109.7001,24.12,25.1,29.54,0,111.3,13,24.96,62.9
"2016-07-15 00:34:30",1810078,4.09,110.8,4.406,0.269,23.36,109.7001,24.12,25.1,29.56,0,111.3,13,24.96,72.8
"2016-07-15 00:35:00",1810079,3.59,103.3,3.839,0.129,23.27,109.6989,24.12,25.11,29.49,0,111.3,13,24.96,65.3
"2016-07-15 00:35:30",1810080,3.628,102.4,7.957,0.379,23.32,109.7004,24.12,25.11,29.46,0,111.3,13,24.96,64.4
"2016-07-15 00:36:00",1810081,3.973,105.8,3.799,0.233,23.29,109.7007,24.13,25.11,29.32,0,111.3,13,24.96,67.8
"2016-07-15 00:36:30",1810082,4.391,103.7,6.848,0.288,23.3,109.7029,24.13,25.11,29.35,0,111.3,13,24.97,65.7
"2016-07-15 00:37:00",1810083,4.448,98.6,6.286,0.62,23.39,109.702,24.13,25.11,29.35,0,111.3,13,24.97,60.6
"2016-07-15 00:37:30",1810084,4.977,105.7,2.915,0.346,23.45,109.702,24.13,25.11,29.13,0,111.3,13,24.97,67.7
"2016-07-15 00:38:00",1810085,4.899,112.4,9.26,0.247,23.35,109.7023,24.13,25.11,29.12,0,111.2,13,24.97,74.4
"2016-07-15 00:38:30",1810086,4.793,125,6.6,0.357,23.35,109.7026,24.13,25.13,29.09,0,111.3,13,24.97,87.0
"2016-07-15 00:39:00",1810087,4.332,123.3,4.873,0.368,23.35,109.7029,24.13,25.12,29.05,0,111.3,13,24.97,85.3
"2016-07-15 00:39:30",1810088,3.835,121.2,2.63,0.168,23.32,109.7029,24.13,25.12,29.03,0,111.3,13,24.97,83.2
"2016-07-15 00:40:00",1810089,3.811,123.9,4.515,0.267,23.32,109.7029,24.13,25.12,29,0,111.3,13.01,24.97,85.9
"2016-07-15 00:40:30",1810090,3.855,122.4,5.726,0.325,23.34,109.7032,24.13,25.12,28.93,0,111.3,13.01,24.97,84.4
"2016-07-15 00:41:00",1810091,3.942,111.2,3.056,0.228,23.35,109.7023,24.13,25.14,29.03,0,111.3,13.01,24.97,73.2
"2016-07-15 00:41:30",1810092,4.157,106.6,5.428,0.261,23.43,109.702,24.13,25.12,28.99,0,111.3,13.01,24.97,68.6
"2016-07-15 00:42:00",1810093,3.812,111.4,4.297,0.179,23.37,109.702,24.13,25.12,29.06,0,111.3,13.01,24.97,73.4
"2016-07-15 00:42:30",1810094,4.019,104.3,3.806,0.435,23.46,109.7023,24.13,25.13,29.02,0,111.3,13.01,24.97,66.3
"2016-07-15 00:43:00",1810095,4.377,103.8,3.343,0.218,23.45,109.7032,24.13,25.12,28.92,0,111.3,13.01,24.97,65.8
"2016-07-15 00:43:30",1810096,5.093,114.9,3.088,0.378,23.43,109.7035,24.13,25.13,28.76,0,111.3,13.01,24.97,76.9
"2016-07-15 00:44:00",1810097,5.185,114.6,2.763,0.429,23.5,109.7035,24.13,25.12,28.65,0,111.3,13.01,24.97,76.6
"2016-07-15 00:44:30",1810098,4.772,123.3,2.821,0.354,23.48,109.7035,24.13,25.13,28.61,0,111.3,13.01,24.97,85.3
"2016-07-15 00:45:00",1810099,3.97,121.4,3.499,0.395,23.55,109.7035,24.13,25.14,28.67,0,111.3,13.01,24.97,83.4
"2016-07-15 00:45:30",1810100,3.73,116.1,2.853,0.194,23.45,109.7032,24.13,25.12,28.63,0,111.3,13.01,24.97,78.1
"2016-07-15 00:46:00",1810101,3.153,111.9,4.597,0.214,23.48,109.7035,24.13,25.14,28.56,0,111.3,13.01,24.97,73.9
"2016-07-15 00:46:30",1810102,3.335,113.9,4.83,0.531,23.4,109.7035,24.13,25.13,28.6,0,111.3,13.01,24.97,75.9
"2016-07-15 00:47:00",1810103,3.988,99.9,3.196,0.242,23.43,109.7035,24.13,25.14,28.67,0,111.3,13.01,24.97,61.9
"2016-07-15 00:47:30",1810104,4.057,94,3.116,0.327,23.57,109.7035,24.13,25.14,28.65,0,111.3,13.01,24.97,56.0
"2016-07-15 00:48:00",1810105,4.275,88.7,5.321,0.308,23.55,109.7041,24.13,25.14,28.57,0,111.2,13.01,24.97,50.7
"2016-07-15 00:48:30",1810106,4.589,97.4,4.236,0.613,23.61,109.7119,24.15,25.15,28.59,0,111.3,13.01,24.99,59.4
"2016-07-15 00:49:00",1810107,5.118,106.8,10.15,0.737,23.61,109.7178,24.17,25.15,28.81,0,111.3,13.01,25.01,68.8
"2016-07-15 00:49:30",1810108,4.025,123.9,6.823,0.275,23.59,109.7055,24.14,25.15,28.93,0,111.3,13.01,24.97,85.9
"2016-07-15 00:50:00",1810109,3.687,121.5,5.99,0.616,23.54,109.7035,24.13,25.13,29.27,0,111.3,13.01,24.97,83.5
"2016-07-15 00:50:30",1810110,3.972,126.8,2.157,0.185,23.48,109.7035,24.13,25.13,28.81,0,111.2,13.01,24.97,88.8
"2016-07-15 00:51:00",1810111,4.138,122.5,5.782,0.22,23.46,109.7035,24.13,25.11,28.59,0,111.3,13,24.97,84.5
"2016-07-15 00:51:30",1810112,5.099,104.9,4.944,0.659,23.59,109.7035,24.13,25.1,29.81,0,111.2,13,24.97,66.9
"2016-07-15 00:52:00",1810113,5.536,98.8,8.48,0.328,23.67,109.7035,24.13,25.11,30.6,0,111.2,13,24.97,60.8
"2016-07-15 00:52:30",1810114,5.734,112.6,3.403,0.423,23.55,109.7035,24.13,25.12,31.28,0,111.2,13,24.97,74.6
"2016-07-15 00:53:00",1810115,6.691,113.3,4.502,0.25,23.5,109.7035,24.13,25.12,32.28,0,111.3,13,24.97,75.3
"2016-07-15 00:53:30",1810116,6.348,117.8,2.39,0.304,23.5,109.7035,24.13,25.14,32.37,0,111.3,13,24.97,79.8
"2016-07-15 00:54:00",1810117,6.846,122.4,1.527,0.226,23.56,109.7035,24.13,25.13,32.44,0,111.2,13,24.97,84.4
"2016-07-15 00:54:30",1810118,6.869,125.5,2.448,0.408,23.57,109.7032,24.13,25.12,32.34,0,111.2,13,24.97,87.5
"2016-07-15 00:55:00",1810119,6.831,124.5,2.454,0.432,23.6,109.6878,24.09,25.12,32.22,0,111.2,13,24.93,86.5
"2016-07-15 00:55:30",1810120,7.193,127.9,2.441,0.428,23.68,109.6701,24.05,25.11,32.27,0,111.2,13,24.88,89.9
"2016-07-15 00:56:00",1810121,6.499,127.2,2.384,0.364,23.73,109.6698,24.05,25.09,32.28,0,111.2,13,24.88,89.2
"2016-07-15 00:56:30",1810122,6.846,122.9,2.086,0.185,23.67,109.6698,24.05,25.08,32.2,0,111.2,13.01,24.88,84.9
"2016-07-15 00:57:00",1810123,6.535,122.2,1.884,0.353,23.69,109.665,24.03,25.08,32.2,0,111.2,13.01,24.87,84.2
"2016-07-15 00:57:30",1810124,6.433,119.9,4.099,0.26,23.79,109.6485,23.99,25.05,32.49,0,111.2,13.01,24.83,81.9
"2016-07-15 00:58:00",1810125,6.745,125.8,1.98,0.129,23.71,109.6361,23.96,25.04,32.28,0,111.2,13.01,24.80,87.8
"2016-07-15 00:58:30",1810126,6.327,127.7,0.821,0.293,23.69,109.6361,23.96,25.04,31.78,0,111.2,13.01,24.80,89.7
"2016-07-15 00:59:00",1810127,5.743,126.8,1.528,0.213,23.69,109.6361,23.96,25.01,31.48,0,111.2,13.01,24.80,88.8
"2016-07-15 00:59:30",1810128,5.965,126.4,1.594,0.477,23.7,109.6344,23.96,25.01,31.79,0,111.2,13.01,24.79,88.4
"2016-07-15 01:00:00",1810129,6.119,124.6,3.848,0.473,23.65,109.6165,23.91,24.99,32.14,0,111.2,13.01,24.74,86.6
"2016-07-15 01:00:30",1810130,7.109,124.3,2.225,0.251,23.71,109.6063,23.88,24.97,32.19,0,111.2,13.01,24.72,86.3
"2016-07-15 01:01:00",1810131,7.596,123.4,2.725,0.394,23.8,109.6024,23.87,24.95,32.39,0,111.2,13.01,24.71,85.4
"2016-07-15 01:01:30",1810132,6.639,123.2,4.547,0.33,23.73,109.6024,23.87,24.95,32.5,0,111.2,13.01,24.71,85.2
"2016-07-15 01:02:00",1810133,6.775,114.2,2.874,0.225,23.86,109.5979,23.86,24.93,32.66,0,111.2,13.01,24.70,76.2
"2016-07-15 01:02:30",1810134,6.882,113.7,3.244,0.439,23.84,109.5774,23.81,24.92,32.68,0,111.2,13.01,24.64,75.7
"2016-07-15 01:03:00",1810135,6.478,123.9,5.602,0.311,23.7,109.5687,23.79,24.9,32.65,0,111.2,13.01,24.62,85.9
"2016-07-15 01:03:30",1810136,6.346,126.7,2.845,0.196,23.68,109.5687,23.79,24.88,32.61,0,111.2,13.01,24.62,88.7
"2016-07-15 01:04:00",1810137,5.85,128.3,2.206,0.128,23.65,109.5687,23.79,24.87,32.59,0,111.2,13.01,24.62,90.3
"2016-07-15 01:04:30",1810138,6.191,118.6,5.209,0.601,23.71,109.567,23.78,24.87,32.57,0,111.2,13.01,24.62,80.6
"2016-07-15 01:05:00",1810139,6.01,114.6,2.092,0.417,23.78,109.5595,23.76,24.84,32.62,0,111.2,13.01,24.60,76.6
"2016-07-15 01:05:30",1810140,6.492,115.4,2.596,0.501,23.73,109.5485,23.73,24.82,32.8,0,111.2,13.01,24.57,77.4
"2016-07-15 01:06:00",1810141,6.932,116.3,1.416,0.187,23.76,109.5356,23.7,24.82,33.04,0,111.2,13.01,24.54,78.3
"2016-07-15 01:06:30",1810142,6.59,114.3,3.429,0.27,23.78,109.535,23.7,24.8,33.03,0,111.2,13.01,24.53,76.3
"2016-07-15 01:07:00",1810143,6.211,107,2.775,0.244,23.8,109.535,23.7,24.8,32.98,0,111.2,13.01,24.53,69.0
"2016-07-15 01:07:30",1810144,6.541,112.1,2.09,0.295,23.76,109.5336,23.7,24.79,32.86,0,111.2,13.01,24.53,74.1
"2016-07-15 01:08:00",1810145,6.314,112.8,2.017,0.307,23.73,109.5252,23.67,24.78,32.94,0,111.2,13.01,24.51,74.8
"2016-07-15 01:08:30",1810146,6.12,112.7,3.753,0.237,23.8,109.5118,23.64,24.76,33.02,0,111.2,13.01,24.47,74.7
"2016-07-15 01:09:00",1810147,6.696,112.4,3.197,0.155,23.83,109.5028,23.62,24.75,33.01,0,111.2,13.01,24.45,74.4
"2016-07-15 01:09:30",1810148,7.348,113.1,3.079,0.31,23.7,109.5029,23.62,24.73,32.79,0,111.2,13.01,24.45,75.1
"2016-07-15 01:10:00",1810149,7.351,117.2,2.501,0.489,23.7,109.5044,23.62,24.73,32.67,0,111.2,13.01,24.46,79.2
"2016-07-15 01:10:30",1810150,7.032,115.3,3.498,0.345,23.74,109.5056,23.62,24.71,32.65,0,111.2,13.01,24.46,77.3
"2016-07-15 01:11:00",1810151,6.327,112.8,2.369,0.698,23.8,109.5085,23.63,24.69,32.73,0,111.2,13.01,24.47,74.8
"2016-07-15 01:11:30",1810152,5.483,116.8,2.454,0.252,23.72,109.4998,23.61,24.69,32.69,0,111.2,13.01,24.44,78.8
"2016-07-15 01:12:00",1810153,6.243,111.4,2.462,0.289,23.73,109.4965,23.6,24.67,32.72,0,111.2,13.01,24.44,73.4
"2016-07-15 01:12:30",1810154,4.632,111.4,3.713,0.495,23.69,109.4884,23.58,24.66,32.7,0,111.2,13.01,24.41,73.4
"2016-07-15 01:13:00",1810155,4.423,126.3,1.873,0.265,23.66,109.4879,23.58,24.65,32.54,0,111.2,13.01,24.41,88.3
"2016-07-15 01:13:30",1810156,4.832,121.4,2.703,0.249,23.65,109.4879,23.58,24.64,32.55,0,111.2,13.01,24.41,83.4
"2016-07-15 01:14:00",1810157,5.228,116.3,3.119,0.353,23.68,109.4867,23.58,24.63,32.59,0,111.2,13.01,24.41,78.3
"2016-07-15 01:14:30",1810158,5.169,118.7,3.735,0.353,23.67,109.4873,23.58,24.62,32.58,0,111.2,13.01,24.41,80.7
"2016-07-15 01:15:00",1810159,5.237,117.2,4.482,0.238,23.61,109.4876,23.58,24.62,32.6,0,111.2,13.01,24.41,79.2
"2016-07-15 01:15:30",1810160,5.247,117.9,3.736,0.124,23.57,109.4879,23.58,24.61,32.46,0,111.2,13.01,24.41,79.9
"2016-07-15 01:16:00",1810161,5.151,123.7,2.967,0.114,23.61,109.4926,23.59,24.61,32.47,0,111.2,13.01,24.43,85.7
"2016-07-15 01:16:30",1810162,5.045,122.2,1.481,0.107,23.6,109.4929,23.59,24.63,32.37,0,111.2,13.02,24.43,84.2
"2016-07-15 01:17:00",1810163,4.688,124.7,1.162,0.175,23.63,109.4935,23.59,24.61,32.24,0,111.2,13.01,24.43,86.7
"2016-07-15 01:17:30",1810164,4.441,119.2,3.648,0.163,23.68,109.4953,23.6,24.6,32.19,0,111.2,13.02,24.43,81.2
"2016-07-15 01:18:00",1810165,4.397,111.5,3.42,0.229,23.7,109.4972,23.6,24.61,32.12,0,111.2,13.02,24.44,73.5
"2016-07-15 01:18:30",1810166,4.612,108.7,4.534,0.269,23.63,109.4978,23.6,24.6,32.37,0,111.2,13.02,24.44,70.7
"2016-07-15 01:19:00",1810167,4.984,121.6,1.483,0.72,23.64,109.4981,23.61,24.59,32.33,0,111.2,13.02,24.44,83.6
"2016-07-15 01:19:30",1810168,5.818,118.1,6.611,0.166,23.61,109.4993,23.61,24.61,32.65,0,111.2,13.02,24.44,80.1
"2016-07-15 01:20:00",1810169,5.445,115.8,2.983,0.17,23.57,109.4987,23.61,24.6,32.65,0,111.2,13.02,24.44,77.8
"2016-07-15 01:20:30",1810170,5.468,119,3.238,0.196,23.58,109.4999,23.61,24.6,32.42,0,111.2,13.01,24.44,81.0
"2016-07-15 01:21:00",1810171,5.464,119.7,2.987,0.118,23.63,109.4917,23.59,24.6,32.38,0,111.2,13.02,24.42,81.7
"2016-07-15 01:21:30",1810172,5.56,115.8,2.549,0.377,23.63,109.4868,23.58,24.57,32.39,0,111.2,13.01,24.41,77.8
"2016-07-15 01:22:00",1810173,6.449,120,1.576,0.276,23.58,109.4745,23.54,24.58,32.4,0,111.2,13.02,24.38,82.0
"2016-07-15 01:22:30",1810174,6.023,124.8,2.934,0.678,23.72,109.4711,23.54,24.58,32.34,0,111.2,13.02,24.37,86.8
"2016-07-15 01:23:00",1810175,5.333,126.3,3.7,0.313,23.73,109.4708,23.54,24.58,32.26,0,111.2,13.02,24.37,88.3
"2016-07-15 01:23:30",1810176,6.333,120.7,2.25,0.379,23.56,109.4705,23.53,24.56,32.52,0,111.2,13.02,24.37,82.7
"2016-07-15 01:24:00",1810177,6.361,116.8,0.858,0.208,23.57,109.4708,23.54,24.55,32.54,0,111.2,13.02,24.37,78.8
"2016-07-15 01:24:30",1810178,6.085,118.2,1.645,0.25,23.6,109.4708,23.54,24.55,32.52,0,111.2,13.02,24.37,80.2
"2016-07-15 01:25:00",1810179,5.963,118.5,1.74,0.154,23.64,109.4652,23.52,24.54,32.57,0,111.2,13.02,24.35,80.5
"2016-07-15 01:25:30",1810180,6.097,120.4,1.182,0.083,23.68,109.4484,23.48,24.53,32.63,0,111.2,13.01,24.31,82.4
"2016-07-15 01:26:00",1810181,6.306,117.8,1.349,0.214,23.6,109.4374,23.45,24.52,32.64,0,111.2,13.02,24.28,79.8
"2016-07-15 01:26:30",1810182,6.476,120.5,1.756,0.212,23.68,109.4371,23.45,24.5,32.72,0,111.2,13.02,24.28,82.5
"2016-07-15 01:27:00",1810183,6.284,119.2,1.96,0.172,23.71,109.4371,23.45,24.49,32.77,0,111.2,13.02,24.28,81.2
"2016-07-15 01:27:30",1810184,6.523,116.3,1.41,0.198,23.68,109.4352,23.44,24.47,32.56,0,111.2,13.01,24.28,78.3
"2016-07-15 01:28:00",1810185,6.554,120,1.428,0.111,23.77,109.4237,23.41,24.48,32.57,0,111.2,13.01,24.25,82.0
"2016-07-15 01:28:30",1810186,6.437,119.8,1.412,0.141,23.74,109.4051,23.37,24.45,32.68,0,111.2,13.02,24.20,81.8
"2016-07-15 01:29:00",1810187,6.468,125,3.349,0.196,23.73,109.4034,23.36,24.44,32.62,0,111.2,13.01,24.20,87.0
"2016-07-15 01:29:30",1810188,5.93,124.9,3.564,0.163,23.77,109.4034,23.36,24.42,32.61,0,111.2,13.02,24.20,86.9
"2016-07-15 01:30:00",1810189,6.088,122.1,1.813,0.152,23.72,109.4034,23.36,24.41,32.69,0,111.2,13.02,24.20,84.1
"2016-07-15 01:30:30",1810190,5.879,122.8,1.912,0.173,23.74,109.4029,23.36,24.41,32.84,0,111.2,13.02,24.19,84.8
"2016-07-15 01:31:00",1810191,5.79,120.5,1.031,0.119,23.7,109.3975,23.35,24.4,32.86,0,111.2,13.02,24.18,82.5
"2016-07-15 01:31:30",1810192,5.923,120.1,0.831,0.058,23.79,109.3922,23.33,24.38,32.65,0,111.2,13.02,24.17,82.1
"2016-07-15 01:32:00",1810193,5.899,122.7,0.696,0.088,23.81,109.3812,23.31,24.37,32.52,0,111.2,13.02,24.14,84.7
"2016-07-15 01:32:30",1810194,5.821,123.3,1.801,0.216,23.8,109.3717,23.28,24.35,32.43,0,111.2,13.02,24.11,85.3
"2016-07-15 01:33:00",1810195,5.397,123.9,1.921,0.336,23.74,109.3697,23.28,24.35,32.78,0,111.2,13.02,24.11,85.9
"2016-07-15 01:33:30",1810196,5.685,121.8,2.019,0.273,23.74,109.3697,23.28,24.34,32.73,0,111.2,13.03,24.11,83.8
"2016-07-15 01:34:00",1810197,5.904,123,1.304,0.166,23.76,109.3697,23.28,24.35,32.73,0,111.2,13.03,24.11,85.0
"2016-07-15 01:34:30",1810198,5.867,120.7,1.181,0.161,23.72,109.3697,23.28,24.34,32.82,0,111.2,13.03,24.11,82.7
"2016-07-15 01:35:00",1810199,6.171,119.8,1.319,0.298,23.75,109.3697,23.28,24.33,32.91,0,111.2,13.03,24.11,81.8
"2016-07-15 01:35:30",1810200,6.371,120,2.423,0.199,23.71,109.3697,23.28,24.32,32.93,0,111.2,13.03,24.11,82.0
"2016-07-15 01:36:00",1810201,6.579,120.6,1.183,0.148,23.74,109.3697,23.28,24.3,32.82,0,111.2,13.03,24.11,82.6
"2016-07-15 01:36:30",1810202,6.268,118.7,2.402,0.242,23.75,109.3672,23.27,24.3,33,0,111.2,13.03,24.10,80.7
"2016-07-15 01:37:00",1810203,6.049,119,1.874,0.423,23.72,109.3602,23.25,24.3,33.08,0,111.2,13.03,24.08,81.0
"2016-07-15 01:37:30",1810204,5.771,121.7,2.616,0.218,23.71,109.3492,23.22,24.3,33.19,0,111.2,13.03,24.06,83.7
"2016-07-15 01:38:00",1810205,6.327,117.7,2.348,0.237,23.75,109.3374,23.19,24.28,33,0,111.2,13.03,24.03,79.7
"2016-07-15 01:38:30",1810206,6.879,119.7,2.471,0.185,23.74,109.336,23.19,24.27,33.12,0,111.2,13.03,24.02,81.7
"2016-07-15 01:39:00",1810207,6.47,121,2.308,0.301,23.76,109.336,23.19,24.27,33.11,0,111.2,13.03,24.02,83.0
"2016-07-15 01:39:30",1810208,6.228,120.5,0.897,0.41,23.77,109.336,23.19,24.26,33.21,0,111.2,13.03,24.02,82.5
"2016-07-15 01:40:00",1810209,6.444,121.6,0.754,0.08,23.78,109.3341,23.18,24.25,32.8,0,111.2,13.03,24.02,83.6
"2016-07-15 01:40:30",1810210,6.656,119.9,1.391,0.259,23.83,109.3265,23.16,24.23,32.95,0,111.2,13.03,24.00,81.9
"2016-07-15 01:41:00",1810211,6.615,121.4,0.712,0.14,23.81,109.3228,23.16,24.22,33.03,0,111.2,13.03,23.99,83.4
"2016-07-15 01:41:30",1810212,6.572,120.7,0.712,0.076,23.86,109.3063,23.11,24.22,33.12,0,111.2,13.03,23.95,82.7
"2016-07-15 01:42:00",1810213,6.681,119.6,1.408,0.164,23.82,109.3032,23.1,24.21,33.33,0,111.2,13.03,23.94,81.6
"2016-07-15 01:42:30",1810214,6.701,121.4,1.02,0.106,23.82,109.3042,23.11,24.19,33.45,0,111.2,13.03,23.94,83.4
"2016-07-15 01:43:00",1810215,6.826,122.5,0.857,0.113,23.88,109.3048,23.11,24.18,33.54,0,111.2,13.02,23.94,84.5
"2016-07-15 01:43:30",1810216,6.644,123.2,1.153,0.103,23.9,109.3042,23.11,24.17,33.63,0,111.2,13.02,23.94,85.2
"2016-07-15 01:44:00",1810217,6.512,124,0.698,0.137,23.87,109.3022,23.1,24.16,33.67,0,111.2,13.02,23.93,86.0
"2016-07-15 01:44:30",1810218,6.318,124.8,0.79,0.081,23.94,109.2934,23.08,24.14,33.73,0,111.2,13.02,23.91,86.8
"2016-07-15 01:45:00",1810219,6.411,124,0.758,0.047,23.86,109.2818,23.05,24.15,33.75,0,111.1,13.02,23.88,86.0
"2016-07-15 01:45:30",1810220,6.445,124.3,0.901,0.082,23.89,109.2794,23.04,24.13,33.79,0,111.1,13.02,23.88,86.3
"2016-07-15 01:46:00",1810221,6.44,123.3,1.006,0.164,23.88,109.2821,23.05,24.12,33.8,0,111.1,13.02,23.88,85.3
"2016-07-15 01:46:30",1810222,6.485,123.2,1.205,0.09,23.93,109.2827,23.05,24.11,33.79,0,111.1,13.02,23.88,85.2
"2016-07-15 01:47:00",1810223,6.487,124.1,1.462,0.169,23.92,109.2867,23.06,24.11,33.75,0,111.1,13.02,23.89,86.1
"2016-07-15 01:47:30",1810224,6.33,125.5,1.143,0.234,24,109.2892,23.07,24.09,33.74,0,111.1,13.02,23.90,87.5
"2016-07-15 01:48:00",1810225,6.638,123.5,1.602,0.145,23.97,109.2923,23.08,24.1,33.71,0,111.1,13.02,23.91,85.5